RUK4CF GMTT-EGCC

Flight info

Callsign RUK4CF
Flight time 2h 43m
Altitude 18000
Route LAMAD M143 GALTO/N0438F360 N869 BLN DCT MORAL DCT BEXID DCT VTB DCT SIE DCT XERMA DCT ARLUN DCT BUGIX DCT UNGAS DCT DELOG DCT RUSIB DCT NOZHU/N0429F370 DCT SHIRI DCT TOJAQ DCT EPACE DCT ACCOP/N0356F240 P16 AXCIS
Aircraft B738/M-SDE2E3FGHIRWXY/LB1

Departure

Time 2026-04-17 08:14
Airport Tangier Ibn Battuta Airport (GMTT)

Arrival

Time 2026-04-17 10:57
Airport Manchester Airport (EGCC)
Time Latitude Longitude Altitude Speed Heading
2026-04-17 07:45 35.72539 -5.91274 72 ft 0 kts 356°
2026-04-17 08:01 35.72538 -5.91274 71 ft 0 kts 356°
2026-04-17 08:02 35.72531 -5.91273 71 ft 2 kts 356°
2026-04-17 08:02 35.72516 -5.91272 71 ft 2 kts 356°
2026-04-17 08:02 35.72500 -5.91270 71 ft 2 kts 356°
2026-04-17 08:03 35.72485 -5.91269 71 ft 2 kts 356°
2026-04-17 08:03 35.72470 -5.91268 71 ft 1 kts 356°
2026-04-17 08:03 35.72459 -5.91266 71 ft 2 kts 335°
2026-04-17 08:03 35.72447 -5.91254 71 ft 2 kts 300°
2026-04-17 08:04 35.72443 -5.91237 71 ft 0 kts 269°
2026-04-17 08:04 35.72444 -5.91229 71 ft 1 kts 264°
2026-04-17 08:04 35.72444 -5.91228 71 ft 0 kts 264°
2026-04-17 08:06 35.72443 -5.91230 71 ft 0 kts 264°
2026-04-17 08:06 35.72442 -5.91247 71 ft 2 kts 264°
2026-04-17 08:06 35.72440 -5.91282 71 ft 4 kts 264°
2026-04-17 08:06 35.72436 -5.91332 71 ft 6 kts 266°
2026-04-17 08:07 35.72432 -5.91403 71 ft 9 kts 266°
2026-04-17 08:07 35.72427 -5.91499 71 ft 12 kts 265°
2026-04-17 08:07 35.72436 -5.91608 71 ft 13 kts 295°
2026-04-17 08:07 35.72510 -5.91681 71 ft 14 kts 346°
2026-04-17 08:08 35.72605 -5.91694 71 ft 13 kts 355°
2026-04-17 08:08 35.72699 -5.91702 71 ft 13 kts 356°
2026-04-17 08:08 35.72793 -5.91711 71 ft 12 kts 357°
2026-04-17 08:08 35.72882 -5.91719 71 ft 12 kts 355°
2026-04-17 08:09 35.72948 -5.91770 71 ft 12 kts 284°
2026-04-17 08:09 35.72961 -5.91889 71 ft 15 kts 277°
2026-04-17 08:09 35.72974 -5.92040 71 ft 18 kts 276°
2026-04-17 08:09 35.72991 -5.92210 71 ft 20 kts 277°
2026-04-17 08:10 35.73008 -5.92396 71 ft 21 kts 276°
2026-04-17 08:10 35.73026 -5.92587 71 ft 22 kts 275°
2026-04-17 08:10 35.73045 -5.92788 71 ft 23 kts 277°
2026-04-17 08:10 35.73064 -5.92993 71 ft 24 kts 276°
2026-04-17 08:11 35.73083 -5.93204 71 ft 23 kts 276°
2026-04-17 08:11 35.73100 -5.93393 71 ft 20 kts 275°
2026-04-17 08:11 35.73117 -5.93562 71 ft 18 kts 276°
2026-04-17 08:11 35.73131 -5.93709 71 ft 16 kts 278°
2026-04-17 08:12 35.73145 -5.93856 71 ft 17 kts 277°
2026-04-17 08:12 35.73168 -5.93999 71 ft 15 kts 293°
2026-04-17 08:12 35.73249 -5.94059 71 ft 13 kts
2026-04-17 08:12 35.73320 -5.93997 71 ft 12 kts 65°
2026-04-17 08:13 35.73313 -5.93735 71 ft 62 kts 97°
2026-04-17 08:13 35.73236 -5.92895 71 ft 127 kts 95°
2026-04-17 08:13 35.73113 -5.91566 72 ft 178 kts 98°
2026-04-17 08:14 35.72828 -5.88331 1230 ft 188 kts 97°
2026-04-17 08:14 35.72674 -5.86623 1634 ft 206 kts 97°
2026-04-17 08:14 35.72498 -5.84722 2015 ft 224 kts 97°
2026-04-17 08:14 35.72316 -5.82737 2636 ft 231 kts 97°
2026-04-17 08:15 35.72158 -5.80725 3306 ft 237 kts 90°
2026-04-17 08:15 35.72421 -5.78571 3652 ft 259 kts 75°
2026-04-17 08:15 35.72918 -5.76302 4124 ft 274 kts 73°
2026-04-17 08:15 35.73423 -5.73953 4858 ft 278 kts 73°
2026-04-17 08:16 35.73907 -5.71612 5653 ft 279 kts 73°
2026-04-17 08:16 35.74392 -5.69235 6472 ft 279 kts 73°
2026-04-17 08:16 35.74880 -5.66866 7239 ft 281 kts 72°
2026-04-17 08:16 35.75369 -5.64496 8028 ft 282 kts 72°
2026-04-17 08:17 35.75862 -5.62088 8804 ft 284 kts 72°
2026-04-17 08:17 35.76360 -5.59659 9589 ft 285 kts 72°
2026-04-17 08:17 35.76859 -5.57258 10353 ft 287 kts 72°
2026-04-17 08:17 35.77381 -5.54719 10584 ft 309 kts 73°
2026-04-17 08:18 35.77935 -5.52006 10936 ft 325 kts 73°
2026-04-17 08:18 35.78503 -5.49199 11609 ft 331 kts 74°
2026-04-17 08:18 35.78973 -5.46376 12349 ft 334 kts 78°
2026-04-17 08:18 35.79363 -5.43467 13005 ft 339 kts 78°
2026-04-17 08:19 35.79753 -5.40526 13717 ft 343 kts 78°
2026-04-17 08:19 35.80161 -5.37507 14401 ft 348 kts 78°
2026-04-17 08:19 35.80573 -5.34490 15095 ft 352 kts 78°
2026-04-17 08:19 35.80992 -5.31427 15779 ft 356 kts 78°
2026-04-17 08:20 35.81413 -5.28371 16436 ft 360 kts 78°
2026-04-17 08:20 35.81844 -5.25234 17098 ft 364 kts 78°
2026-04-17 08:20 35.82278 -5.22060 17737 ft 368 kts 78°
2026-04-17 08:20 35.82718 -5.18862 18375 ft 371 kts 78°
2026-04-17 08:21 35.83479 -5.15768 18996 ft 371 kts 62°
2026-04-17 08:21 35.85029 -5.13148 19634 ft 370 kts 41°
2026-04-17 08:21 35.87127 -5.11226 20254 ft 371 kts 32°
2026-04-17 08:21 35.89389 -5.09477 20768 ft 376 kts 31°
2026-04-17 08:22 35.91638 -5.07750 21348 ft 379 kts 32°
2026-04-17 08:22 35.93946 -5.05963 21875 ft 383 kts 32°
2026-04-17 08:22 35.96255 -5.04162 22412 ft 386 kts 32°
2026-04-17 08:22 35.98584 -5.02338 22929 ft 389 kts 32°
2026-04-17 08:23 36.00904 -5.00516 23398 ft 393 kts 32°
2026-04-17 08:23 36.03297 -4.98640 23822 ft 398 kts 33°
2026-04-17 08:23 36.05701 -4.96751 24250 ft 403 kts 33°
2026-04-17 08:23 36.08125 -4.94832 24652 ft 408 kts 33°
2026-04-17 08:24 36.10559 -4.92905 25189 ft 408 kts 33°
2026-04-17 08:24 36.13031 -4.90946 25617 ft 412 kts 33°
2026-04-17 08:24 36.15472 -4.89011 26046 ft 415 kts 33°
2026-04-17 08:24 36.17957 -4.87062 26487 ft 417 kts 33°
2026-04-17 08:25 36.20473 -4.85097 26892 ft 421 kts 33°
2026-04-17 08:25 36.22988 -4.83132 27310 ft 423 kts 33°
2026-04-17 08:25 36.25526 -4.81147 27687 ft 426 kts 33°
2026-04-17 08:25 36.28086 -4.79126 28110 ft 427 kts 33°
2026-04-17 08:26 36.30634 -4.77140 28434 ft 431 kts 33°
2026-04-17 08:26 36.33223 -4.75106 28816 ft 433 kts 33°
2026-04-17 08:26 36.35795 -4.73081 29220 ft 435 kts 33°
2026-04-17 08:26 36.38422 -4.71000 29528 ft 438 kts 34°
2026-04-17 08:27 36.41014 -4.68962 29862 ft 441 kts 33°
2026-04-17 08:27 36.43645 -4.66897 30227 ft 442 kts 33°
2026-04-17 08:27 36.46289 -4.64818 30634 ft 442 kts 34°
2026-04-17 08:27 36.48897 -4.62735 31117 ft 440 kts 33°
2026-04-17 08:28 36.51536 -4.60630 31559 ft 440 kts 33°
2026-04-17 08:28 36.54134 -4.58567 31986 ft 438 kts 33°
2026-04-17 08:28 36.56747 -4.56498 32442 ft 437 kts 32°
2026-04-17 08:28 36.59370 -4.54425 32906 ft 435 kts 32°
2026-04-17 08:29 36.61969 -4.52370 33301 ft 434 kts 32°
2026-04-17 08:29 36.64563 -4.50321 33727 ft 432 kts 31°
2026-04-17 08:29 36.67135 -4.48287 34152 ft 430 kts 31°
2026-04-17 08:29 36.69677 -4.46278 34480 ft 430 kts 31°
2026-04-17 08:30 36.72262 -4.44234 34838 ft 429 kts 31°
2026-04-17 08:30 36.74825 -4.42202 35179 ft 429 kts 31°
2026-04-17 08:30 36.77354 -4.40195 35477 ft 429 kts 31°
2026-04-17 08:30 36.79920 -4.38199 35796 ft 428 kts 29°
2026-04-17 08:31 36.82620 -4.36460 36105 ft 428 kts 24°
2026-04-17 08:31 36.85345 -4.34907 36400 ft 427 kts 24°
2026-04-17 08:31 36.88096 -4.33377 36637 ft 428 kts 23°
2026-04-17 08:31 36.90870 -4.31841 36913 ft 428 kts 23°
2026-04-17 08:32 36.93620 -4.30323 37161 ft 429 kts 23°
2026-04-17 08:32 36.99173 -4.27264 37183 ft 429 kts 23°
2026-04-17 08:33 37.04694 -4.24228 37190 ft 424 kts 23°
2026-04-17 08:33 37.10197 -4.21198 37194 ft 426 kts 23°
2026-04-17 08:34 37.15709 -4.18161 37198 ft 427 kts 23°
2026-04-17 08:34 37.21220 -4.15120 37205 ft 427 kts 24°
2026-04-17 08:35 37.26712 -4.12085 37208 ft 427 kts 24°
2026-04-17 08:35 37.32217 -4.09040 37209 ft 427 kts 24°
2026-04-17 08:36 37.37752 -4.05971 37209 ft 428 kts 24°
2026-04-17 08:36 37.43228 -4.02931 37209 ft 428 kts 24°
2026-04-17 08:37 37.48767 -3.99850 37209 ft 426 kts 24°
2026-04-17 08:37 37.54280 -3.96794 37209 ft 428 kts 24°
2026-04-17 08:38 37.59806 -3.93708 37210 ft 431 kts 25°
2026-04-17 08:38 37.65371 -3.90590 37203 ft 430 kts 25°
2026-04-17 08:38 37.68152 -3.89031 36903 ft 434 kts 25°
2026-04-17 08:39 37.70898 -3.87495 36902 ft 427 kts 25°
2026-04-17 08:39 37.73603 -3.85978 37180 ft 420 kts 25°
2026-04-17 08:39 37.76314 -3.84452 37220 ft 426 kts 25°
2026-04-17 08:40 37.81823 -3.81357 37209 ft 432 kts 25°
2026-04-17 08:40 37.87387 -3.78227 37207 ft 430 kts 25°
2026-04-17 08:41 37.92896 -3.75123 37209 ft 428 kts 25°
2026-04-17 08:41 37.98434 -3.71998 37209 ft 429 kts 25°
2026-04-17 08:42 38.03952 -3.68879 37209 ft 430 kts 25°
2026-04-17 08:42 38.09485 -3.65746 37208 ft 430 kts 25°
2026-04-17 08:43 38.15164 -3.63031 37208 ft 431 kts 16°
2026-04-17 08:43 38.21173 -3.61913 37212 ft 433 kts
2026-04-17 08:44 38.27253 -3.61314 37208 ft 434 kts
2026-04-17 08:44 38.33344 -3.60728 37208 ft 434 kts
2026-04-17 08:45 38.39473 -3.60131 37208 ft 434 kts
2026-04-17 08:45 38.45546 -3.59542 37209 ft 435 kts
2026-04-17 08:46 38.51678 -3.58946 37209 ft 435 kts
2026-04-17 08:46 38.57787 -3.58351 37207 ft 436 kts
2026-04-17 08:47 38.63945 -3.57750 37190 ft 437 kts
2026-04-17 08:47 38.70075 -3.57152 37173 ft 437 kts
2026-04-17 08:48 38.76222 -3.56550 37173 ft 437 kts
2026-04-17 08:48 38.82411 -3.55944 37191 ft 438 kts
2026-04-17 08:49 38.88598 -3.55335 37207 ft 439 kts
2026-04-17 08:49 38.94791 -3.54726 37209 ft 439 kts
2026-04-17 08:50 39.00932 -3.54121 37208 ft 439 kts
2026-04-17 08:50 39.07158 -3.53503 37209 ft 439 kts
2026-04-17 08:51 39.13300 -3.52891 37209 ft 439 kts
2026-04-17 08:51 39.19487 -3.52271 37209 ft 439 kts
2026-04-17 08:52 39.25651 -3.51613 37209 ft 440 kts
2026-04-17 08:52 39.31817 -3.50924 37209 ft 440 kts
2026-04-17 08:53 39.37969 -3.50242 37209 ft 439 kts
2026-04-17 08:53 39.44119 -3.49599 37209 ft 439 kts
2026-04-17 08:53 39.47218 -3.49290 36935 ft 445 kts
2026-04-17 08:54 39.50333 -3.48989 36873 ft 440 kts
2026-04-17 08:54 39.56455 -3.48434 37234 ft 433 kts
2026-04-17 08:55 39.62632 -3.47898 37211 ft 442 kts
2026-04-17 08:55 39.68811 -3.47356 37207 ft 440 kts
2026-04-17 08:56 39.74958 -3.46804 37208 ft 438 kts
2026-04-17 08:56 39.81133 -3.46866 37213 ft 439 kts 355°
2026-04-17 08:57 39.87295 -3.47415 37209 ft 439 kts 355°
2026-04-17 08:57 39.93467 -3.47998 37209 ft 438 kts 355°
2026-04-17 08:58 39.99657 -3.48602 37209 ft 438 kts 355°
2026-04-17 08:58 40.05813 -3.49205 37209 ft 439 kts 354°
2026-04-17 08:59 40.11995 -3.49829 37209 ft 440 kts 354°
2026-04-17 08:59 40.18150 -3.50454 37209 ft 439 kts 354°
2026-04-17 09:00 40.24326 -3.51081 37210 ft 440 kts 354°
2026-04-17 09:00 40.30488 -3.51710 37209 ft 440 kts 354°
2026-04-17 09:01 40.36689 -3.52343 37208 ft 441 kts 354°
2026-04-17 09:01 40.42877 -3.52976 37209 ft 441 kts 354°
2026-04-17 09:02 40.49086 -3.53613 37208 ft 442 kts 354°
2026-04-17 09:02 40.55293 -3.54250 37217 ft 443 kts 354°
2026-04-17 09:03 40.61504 -3.54889 37225 ft 443 kts 354°
2026-04-17 09:03 40.67743 -3.55532 37231 ft 444 kts 354°
2026-04-17 09:04 40.74001 -3.56178 37231 ft 445 kts 354°
2026-04-17 09:04 40.80261 -3.56826 37232 ft 446 kts 354°
2026-04-17 09:05 40.86556 -3.57479 37233 ft 447 kts 354°
2026-04-17 09:05 40.92824 -3.58129 37233 ft 447 kts 353°
2026-04-17 09:06 40.99120 -3.58785 37235 ft 449 kts 353°
2026-04-17 09:06 41.05454 -3.59444 37236 ft 450 kts 353°
2026-04-17 09:07 41.11781 -3.60106 37235 ft 450 kts 353°
2026-04-17 09:07 41.18130 -3.60637 37235 ft 452 kts 356°
2026-04-17 09:08 41.24488 -3.60766 37236 ft 453 kts 357°
2026-04-17 09:08 41.30883 -3.60897 37236 ft 454 kts 357°
2026-04-17 09:08 41.34125 -3.60970 37052 ft 459 kts 356°
2026-04-17 09:09 41.37338 -3.61044 36960 ft 456 kts 356°
2026-04-17 09:09 41.43719 -3.61195 37166 ft 449 kts 356°
2026-04-17 09:10 41.53348 -3.61393 37238 ft 459 kts 358°
2026-04-17 09:10 41.59839 -3.61380 37235 ft 458 kts 358°
2026-04-17 09:11 41.66325 -3.61368 37236 ft 458 kts 358°
2026-04-17 09:11 41.72777 -3.61362 37236 ft 458 kts 358°
2026-04-17 09:12 41.79230 -3.61358 37236 ft 459 kts 357°
2026-04-17 09:12 41.85722 -3.61354 37236 ft 459 kts 357°
2026-04-17 09:13 41.92254 -3.61354 37236 ft 459 kts 357°
2026-04-17 09:13 41.98705 -3.61354 37236 ft 459 kts 357°
2026-04-17 09:14 42.05208 -3.61458 37237 ft 461 kts 354°
2026-04-17 09:14 42.11685 -3.61903 37235 ft 461 kts 354°
2026-04-17 09:15 42.18156 -3.62347 37235 ft 460 kts 354°
2026-04-17 09:15 42.24639 -3.62780 37236 ft 461 kts 354°
2026-04-17 09:16 42.31109 -3.63207 37236 ft 461 kts 354°
2026-04-17 09:16 42.37580 -3.63837 37236 ft 458 kts 349°
2026-04-17 09:17 42.43971 -3.65096 37236 ft 459 kts 348°
2026-04-17 09:17 42.50390 -3.66392 37236 ft 459 kts 348°
2026-04-17 09:18 42.56773 -3.67674 37236 ft 459 kts 348°
2026-04-17 09:18 42.63186 -3.68960 37236 ft 460 kts 348°
2026-04-17 09:19 42.69625 -3.70237 37236 ft 461 kts 348°
2026-04-17 09:19 42.76077 -3.71340 37234 ft 462 kts 349°
2026-04-17 09:20 42.82548 -3.72431 37228 ft 462 kts 349°
2026-04-17 09:20 42.89025 -3.73530 37221 ft 463 kts 348°
2026-04-17 09:21 42.95513 -3.74637 37216 ft 464 kts 348°
2026-04-17 09:21 43.02065 -3.75759 37211 ft 464 kts 348°
2026-04-17 09:22 43.08554 -3.76874 37209 ft 465 kts 348°
2026-04-17 09:22 43.15122 -3.78007 37209 ft 466 kts 348°
2026-04-17 09:23 43.21667 -3.79138 37209 ft 468 kts 348°
2026-04-17 09:23 43.28235 -3.80276 37196 ft 469 kts 348°
2026-04-17 09:24 43.34877 -3.81428 37182 ft 470 kts 347°
2026-04-17 09:24 43.41536 -3.82586 37211 ft 470 kts 347°
2026-04-17 09:25 43.48183 -3.83745 37209 ft 472 kts 347°
2026-04-17 09:25 43.54859 -3.84913 37209 ft 473 kts 347°
2026-04-17 09:26 43.61499 -3.86075 37209 ft 473 kts 347°
2026-04-17 09:26 43.68183 -3.87250 37209 ft 474 kts 347°
2026-04-17 09:27 43.74893 -3.88430 37209 ft 475 kts 347°
2026-04-17 09:27 43.81575 -3.89610 37209 ft 475 kts 347°
2026-04-17 09:28 43.88242 -3.90787 37209 ft 475 kts 347°
2026-04-17 09:28 43.94965 -3.91978 37208 ft 474 kts 347°
2026-04-17 09:29 44.01667 -3.93169 37209 ft 474 kts 347°
2026-04-17 09:29 44.08364 -3.94362 37209 ft 474 kts 347°
2026-04-17 09:30 44.15042 -3.95555 37210 ft 475 kts 347°
2026-04-17 09:30 44.21747 -3.96752 37209 ft 476 kts 347°
2026-04-17 09:31 44.28460 -3.97952 37208 ft 476 kts 347°
2026-04-17 09:31 44.35223 -3.98518 37210 ft 481 kts 355°
2026-04-17 09:32 44.42104 -3.98357 37210 ft 483 kts 356°
2026-04-17 09:32 44.48967 -3.98146 37209 ft 483 kts 356°
2026-04-17 09:33 44.55844 -3.97915 37208 ft 482 kts 356°
2026-04-17 09:33 44.62701 -3.97680 37210 ft 484 kts 356°
2026-04-17 09:34 44.69571 -3.97437 37209 ft 484 kts 356°
2026-04-17 09:34 44.76479 -3.97188 37209 ft 485 kts 356°
2026-04-17 09:35 44.83357 -3.96943 37209 ft 485 kts 356°
2026-04-17 09:35 44.90266 -3.96696 37209 ft 486 kts 356°
2026-04-17 09:36 44.97212 -3.96449 37209 ft 488 kts 356°
2026-04-17 09:36 45.04149 -3.96196 37209 ft 490 kts 356°
2026-04-17 09:37 45.11132 -3.95942 37208 ft 490 kts 356°
2026-04-17 09:37 45.18108 -3.95685 37209 ft 490 kts 355°
2026-04-17 09:38 45.25054 -3.95434 37210 ft 492 kts 355°
2026-04-17 09:38 45.32036 -3.95180 37192 ft 494 kts 355°
2026-04-17 09:39 45.39083 -3.94921 37128 ft 493 kts 355°
2026-04-17 09:39 45.46097 -3.94663 37127 ft 493 kts 355°
2026-04-17 09:40 45.53148 -3.94403 37110 ft 496 kts 355°
2026-04-17 09:40 45.60188 -3.94145 37093 ft 497 kts 355°
2026-04-17 09:41 45.67258 -3.93881 37155 ft 495 kts 355°
2026-04-17 09:41 45.74332 -3.93623 37208 ft 499 kts 355°
2026-04-17 09:42 45.81374 -3.93356 37207 ft 498 kts 355°
2026-04-17 09:42 45.88428 -3.93095 37209 ft 497 kts 355°
2026-04-17 09:43 45.95490 -3.92833 37209 ft 497 kts 355°
2026-04-17 09:43 46.02559 -3.92567 37208 ft 498 kts 355°
2026-04-17 09:44 46.09583 -3.92305 37210 ft 498 kts 355°
2026-04-17 09:44 46.16706 -3.92036 37209 ft 497 kts 355°
2026-04-17 09:45 46.23777 -3.91770 37209 ft 498 kts 355°
2026-04-17 09:45 46.30838 -3.91501 37208 ft 497 kts 355°
2026-04-17 09:46 46.37875 -3.91235 37209 ft 497 kts 355°
2026-04-17 09:46 46.44899 -3.90963 37208 ft 496 kts 355°
2026-04-17 09:47 46.51937 -3.90695 37209 ft 496 kts 355°
2026-04-17 09:47 46.58960 -3.90428 37209 ft 496 kts 355°
2026-04-17 09:48 46.65953 -3.90161 37209 ft 496 kts 355°
2026-04-17 09:48 46.73009 -3.89889 37209 ft 496 kts 355°
2026-04-17 09:49 46.80014 -3.89618 37210 ft 496 kts 355°
2026-04-17 09:49 46.87044 -3.89344 37208 ft 495 kts 354°
2026-04-17 09:50 46.94045 -3.89073 37209 ft 496 kts 354°
2026-04-17 09:50 47.01069 -3.88800 37209 ft 496 kts 354°
2026-04-17 09:51 47.08050 -3.88523 37208 ft 494 kts 354°
2026-04-17 09:51 47.15020 -3.88253 37209 ft 493 kts 354°
2026-04-17 09:52 47.21983 -3.87982 37210 ft 493 kts 354°
2026-04-17 09:52 47.28959 -3.87708 37209 ft 493 kts 354°
2026-04-17 09:53 47.35902 -3.87436 37209 ft 493 kts 354°
2026-04-17 09:53 47.42858 -3.87159 37207 ft 492 kts 354°
2026-04-17 09:54 47.46336 -3.87023 37037 ft 494 kts 354°
2026-04-17 09:54 47.49806 -3.86884 37042 ft 491 kts 354°
2026-04-17 09:54 47.56760 -3.86609 37044 ft 491 kts 354°
2026-04-17 09:55 47.63692 -3.86334 37045 ft 492 kts 354°
2026-04-17 09:55 47.70624 -3.86058 37044 ft 491 kts 354°
2026-04-17 09:56 47.77564 -3.85781 37045 ft 491 kts 354°
2026-04-17 09:56 47.84480 -3.85504 37224 ft 489 kts 354°
2026-04-17 09:57 47.91425 -3.85229 37209 ft 493 kts 354°
2026-04-17 09:57 47.98344 -3.84947 37208 ft 491 kts 354°
2026-04-17 09:58 48.05264 -3.84666 37209 ft 490 kts 354°
2026-04-17 09:58 48.12194 -3.84386 37209 ft 490 kts 354°
2026-04-17 09:59 48.19103 -3.84107 37208 ft 491 kts 354°
2026-04-17 09:59 48.26028 -3.83823 37195 ft 491 kts 354°
2026-04-17 10:00 48.32964 -3.83539 37183 ft 490 kts 354°
2026-04-17 10:00 48.39864 -3.83257 37182 ft 490 kts 354°
2026-04-17 10:01 48.46768 -3.82975 37181 ft 490 kts 354°
2026-04-17 10:01 48.53741 -3.82688 37183 ft 492 kts 354°
2026-04-17 10:02 48.60667 -3.82402 37181 ft 492 kts 354°
2026-04-17 10:02 48.67614 -3.82112 37182 ft 491 kts 354°
2026-04-17 10:03 48.74580 -3.81824 37182 ft 491 kts 354°
2026-04-17 10:03 48.81517 -3.81535 37182 ft 491 kts 354°
2026-04-17 10:04 48.88474 -3.81243 37182 ft 491 kts 354°
2026-04-17 10:04 48.95414 -3.80957 37182 ft 491 kts 354°
2026-04-17 10:05 49.02373 -3.80603 37182 ft 492 kts 355°
2026-04-17 10:05 49.09353 -3.80165 37181 ft 491 kts 355°
2026-04-17 10:06 49.16242 -3.79740 37182 ft 490 kts 355°
2026-04-17 10:06 49.23206 -3.79312 37182 ft 490 kts 355°
2026-04-17 10:07 49.30093 -3.78887 37182 ft 490 kts 355°
2026-04-17 10:07 49.37054 -3.78461 37182 ft 490 kts 355°
2026-04-17 10:08 49.43988 -3.78032 37182 ft 490 kts 355°
2026-04-17 10:08 49.50880 -3.77607 37182 ft 489 kts 355°
2026-04-17 10:09 49.54354 -3.77393 36955 ft 493 kts 355°
2026-04-17 10:09 49.57858 -3.77173 36898 ft 488 kts 355°
2026-04-17 10:09 49.64758 -3.76742 36913 ft 487 kts 355°
2026-04-17 10:10 49.71699 -3.76261 36912 ft 491 kts 357°
2026-04-17 10:11 49.82158 -3.75000 36896 ft 492 kts 358°
2026-04-17 10:11 49.89099 -3.74159 36872 ft 490 kts 358°
2026-04-17 10:12 49.96026 -3.73320 37147 ft 485 kts 358°
2026-04-17 10:12 50.02945 -3.72501 37128 ft 492 kts 358°
2026-04-17 10:13 50.09848 -3.71673 37127 ft 490 kts 358°
2026-04-17 10:13 50.16751 -3.70842 37128 ft 488 kts 358°
2026-04-17 10:14 50.23618 -3.70018 37128 ft 489 kts 358°
2026-04-17 10:14 50.30502 -3.69190 37128 ft 490 kts 358°
2026-04-17 10:15 50.37385 -3.68362 37128 ft 491 kts 358°
2026-04-17 10:15 50.44306 -3.67416 37128 ft 493 kts
2026-04-17 10:16 50.51206 -3.66075 37128 ft 493 kts
2026-04-17 10:16 50.58100 -3.64733 37128 ft 493 kts
2026-04-17 10:17 50.64986 -3.63403 37128 ft 493 kts
2026-04-17 10:17 50.71880 -3.62071 37128 ft 493 kts
2026-04-17 10:18 50.78844 -3.60730 37129 ft 494 kts
2026-04-17 10:18 50.85785 -3.59392 37127 ft 494 kts
2026-04-17 10:19 50.92724 -3.58051 37128 ft 494 kts
2026-04-17 10:19 50.99699 -3.56697 37128 ft 494 kts
2026-04-17 10:20 51.06621 -3.55354 37126 ft 494 kts
2026-04-17 10:20 51.13537 -3.54004 37115 ft 494 kts
2026-04-17 10:21 51.20464 -3.52648 37103 ft 494 kts
2026-04-17 10:21 51.27386 -3.51290 37101 ft 493 kts
2026-04-17 10:22 51.34308 -3.49930 37101 ft 493 kts
2026-04-17 10:22 51.41276 -3.48555 37101 ft 494 kts
2026-04-17 10:23 51.48166 -3.47190 37100 ft 493 kts
2026-04-17 10:23 51.55130 -3.45806 37101 ft 493 kts
2026-04-17 10:24 51.62036 -3.44431 36899 ft 498 kts
2026-04-17 10:24 51.65492 -3.43741 36717 ft 494 kts
2026-04-17 10:24 51.68962 -3.43043 36728 ft 488 kts
2026-04-17 10:25 51.75820 -3.41670 36726 ft 492 kts
2026-04-17 10:25 51.82734 -3.40282 36393 ft 492 kts
2026-04-17 10:25 51.86155 -3.39595 35766 ft 492 kts
2026-04-17 10:26 51.89613 -3.38896 35172 ft 491 kts
2026-04-17 10:26 51.93019 -3.38209 34662 ft 487 kts
2026-04-17 10:26 51.96437 -3.37778 34139 ft 481 kts 357°
2026-04-17 10:26 51.99855 -3.37558 33654 ft 477 kts 356°
2026-04-17 10:27 52.03194 -3.37366 33174 ft 473 kts 356°
2026-04-17 10:27 52.06510 -3.37158 32728 ft 469 kts 356°
2026-04-17 10:27 52.09820 -3.36939 32231 ft 467 kts 356°
2026-04-17 10:27 52.13109 -3.36714 31718 ft 464 kts 356°
2026-04-17 10:28 52.16344 -3.36490 31211 ft 461 kts 356°
2026-04-17 10:28 52.19601 -3.36261 30711 ft 458 kts 356°
2026-04-17 10:28 52.22796 -3.36031 30233 ft 455 kts 356°
2026-04-17 10:28 52.25999 -3.35801 29735 ft 452 kts 356°
2026-04-17 10:29 52.29165 -3.35577 29294 ft 448 kts 356°
2026-04-17 10:29 52.32330 -3.35348 28859 ft 444 kts 356°
2026-04-17 10:29 52.35460 -3.35127 28375 ft 441 kts 356°
2026-04-17 10:29 52.38562 -3.34904 27951 ft 436 kts 357°
2026-04-17 10:30 52.41611 -3.34689 27500 ft 433 kts 357°
2026-04-17 10:30 52.44653 -3.34476 27076 ft 429 kts 357°
2026-04-17 10:30 52.47653 -3.34260 26659 ft 424 kts 357°
2026-04-17 10:30 52.50630 -3.34048 26216 ft 421 kts 358°
2026-04-17 10:31 52.53580 -3.33835 25786 ft 417 kts 358°
2026-04-17 10:31 52.56551 -3.33617 25348 ft 413 kts 358°
2026-04-17 10:31 52.59426 -3.33373 24939 ft 411 kts
2026-04-17 10:31 52.62315 -3.32805 24503 ft 410 kts
2026-04-17 10:32 52.65124 -3.31709 24067 ft 410 kts 15°
2026-04-17 10:32 52.67879 -3.30166 23665 ft 407 kts 17°
2026-04-17 10:32 52.70547 -3.28595 23257 ft 403 kts 17°
2026-04-17 10:32 52.73245 -3.26997 22834 ft 400 kts 17°
2026-04-17 10:33 52.75890 -3.25421 22438 ft 397 kts 17°
2026-04-17 10:33 52.78516 -3.23856 22019 ft 394 kts 17°
2026-04-17 10:33 52.81121 -3.22301 21641 ft 389 kts 18°
2026-04-17 10:33 52.83710 -3.20748 21234 ft 386 kts 18°
2026-04-17 10:34 52.86254 -3.19242 20832 ft 383 kts 15°
2026-04-17 10:34 52.88840 -3.18019 20438 ft 378 kts 10°
2026-04-17 10:34 52.91447 -3.17339 20055 ft 370 kts
2026-04-17 10:34 52.94037 -3.17066 19667 ft 366 kts 359°
2026-04-17 10:35 52.96629 -3.16850 19256 ft 363 kts 358°
2026-04-17 10:35 52.99173 -3.16641 18975 ft 357 kts 358°
2026-04-17 10:35 53.01660 -3.16437 18620 ft 353 kts 358°
2026-04-17 10:35 53.04141 -3.16239 18157 ft 353 kts 358°
2026-04-17 10:36 53.06671 -3.16038 17704 ft 353 kts 358°
2026-04-17 10:36 53.09137 -3.15842 17252 ft 352 kts 358°
2026-04-17 10:36 53.11653 -3.15641 16803 ft 350 kts 358°
2026-04-17 10:36 53.14100 -3.15449 16360 ft 349 kts 358°
2026-04-17 10:37 53.16560 -3.15253 15916 ft 348 kts 358°
2026-04-17 10:37 53.19028 -3.15056 15473 ft 346 kts 358°
2026-04-17 10:37 53.21444 -3.14863 15042 ft 344 kts 358°
2026-04-17 10:37 53.23863 -3.14668 14606 ft 343 kts 358°
2026-04-17 10:38 53.26293 -3.14474 14169 ft 341 kts 358°
2026-04-17 10:38 53.28692 -3.14285 13738 ft 339 kts 358°
2026-04-17 10:38 53.31096 -3.14095 13306 ft 342 kts 358°
2026-04-17 10:38 53.33487 -3.13904 12862 ft 340 kts 358°
2026-04-17 10:39 53.35876 -3.13689 12488 ft 337 kts
2026-04-17 10:39 53.38169 -3.12729 12250 ft 335 kts 22°
2026-04-17 10:39 53.40077 -3.10456 11769 ft 332 kts 49°
2026-04-17 10:39 53.41383 -3.07186 11157 ft 326 kts 62°
2026-04-17 10:40 53.42516 -3.03899 10472 ft 326 kts 62°
2026-04-17 10:40 53.43668 -3.00542 9944 ft 324 kts 62°
2026-04-17 10:40 53.44820 -2.97231 9510 ft 324 kts 62°
2026-04-17 10:40 53.45948 -2.93974 9284 ft 317 kts 62°
2026-04-17 10:41 53.47066 -2.90740 8896 ft 316 kts 62°
2026-04-17 10:41 53.48185 -2.87510 8480 ft 316 kts 62°
2026-04-17 10:41 53.49301 -2.84263 8076 ft 317 kts 63°
2026-04-17 10:41 53.50419 -2.81000 7672 ft 316 kts 62°
2026-04-17 10:42 53.51546 -2.77797 7273 ft 316 kts 61°
2026-04-17 10:42 53.52680 -2.74569 6984 ft 310 kts 62°
2026-04-17 10:42 53.53772 -2.71522 6949 ft 301 kts 61°
2026-04-17 10:42 53.54912 -2.68384 6609 ft 311 kts 59°
2026-04-17 10:43 53.56098 -2.65357 6374 ft 307 kts 58°
2026-04-17 10:43 53.57271 -2.62331 6174 ft 299 kts 59°
2026-04-17 10:43 53.58437 -2.59407 5979 ft 292 kts 58°
2026-04-17 10:43 53.59569 -2.56599 5790 ft 286 kts 58°
2026-04-17 10:44 53.60695 -2.53779 5595 ft 278 kts 56°
2026-04-17 10:44 53.61761 -2.51059 5406 ft 271 kts 60°
2026-04-17 10:44 53.62811 -2.48418 5224 ft 265 kts 58°
2026-04-17 10:44 53.63818 -2.45846 5092 ft 253 kts 57°
2026-04-17 10:45 53.64800 -2.43396 4880 ft 244 kts 58°
2026-04-17 10:45 53.65715 -2.41023 4683 ft 231 kts 58°
2026-04-17 10:45 53.66566 -2.38701 4459 ft 222 kts 59°
2026-04-17 10:45 53.67400 -2.36545 4249 ft 213 kts 59°
2026-04-17 10:46 53.68228 -2.34452 4061 ft 207 kts 60°
2026-04-17 10:46 53.68952 -2.32411 3869 ft 193 kts 76°
2026-04-17 10:46 53.68978 -2.30176 3662 ft 188 kts 118°
2026-04-17 10:46 53.68212 -2.28392 3526 ft 180 kts 148°
2026-04-17 10:47 53.67282 -2.27160 3489 ft 164 kts 150°
2026-04-17 10:47 53.66381 -2.25905 3488 ft 164 kts 148°
2026-04-17 10:47 53.65480 -2.24584 3495 ft 175 kts 148°
2026-04-17 10:47 53.64554 -2.23224 3490 ft 176 kts 147°
2026-04-17 10:48 53.63636 -2.21864 3485 ft 167 kts 147°
2026-04-17 10:48 53.62758 -2.20572 3485 ft 164 kts 148°
2026-04-17 10:48 53.61892 -2.19313 3504 ft 157 kts 148°
2026-04-17 10:48 53.61031 -2.18043 3501 ft 175 kts 147°
2026-04-17 10:49 53.60103 -2.16670 3490 ft 175 kts 147°
2026-04-17 10:49 53.59188 -2.15330 3491 ft 168 kts 147°
2026-04-17 10:49 53.58305 -2.14033 3488 ft 162 kts 146°
2026-04-17 10:49 53.57446 -2.12760 3467 ft 166 kts 147°
2026-04-17 10:50 53.56543 -2.11441 3529 ft 165 kts 147°
2026-04-17 10:50 53.55690 -2.10200 3451 ft 157 kts 146°
2026-04-17 10:50 53.54848 -2.08955 3514 ft 163 kts 147°
2026-04-17 10:50 53.53933 -2.07600 3500 ft 174 kts 147°
2026-04-17 10:51 53.53033 -2.06283 3458 ft 162 kts 147°
2026-04-17 10:51 53.52180 -2.05042 3493 ft 161 kts 147°
2026-04-17 10:51 53.51308 -2.03770 3493 ft 164 kts 147°
2026-04-17 10:51 53.50431 -2.02489 3485 ft 162 kts 147°
2026-04-17 10:52 53.49549 -2.01303 3471 ft 162 kts 159°
2026-04-17 10:52 53.48477 -2.00971 3483 ft 153 kts 202°
2026-04-17 10:52 53.47641 -2.02010 3524 ft 147 kts 231°
2026-04-17 10:52 53.46970 -2.03355 3475 ft 150 kts 226°
2026-04-17 10:53 53.46321 -2.04712 3478 ft 146 kts 226°
2026-04-17 10:53 53.45659 -2.06085 3255 ft 151 kts 228°
2026-04-17 10:53 53.45011 -2.07443 3049 ft 144 kts 232°
2026-04-17 10:53 53.44378 -2.08762 2870 ft 142 kts 226°
2026-04-17 10:54 53.43772 -2.10030 2687 ft 135 kts 229°
2026-04-17 10:54 53.43200 -2.11222 2504 ft 128 kts 229°
2026-04-17 10:54 53.42633 -2.12407 2322 ft 129 kts 229°
2026-04-17 10:54 53.42066 -2.13589 2148 ft 132 kts 229°
2026-04-17 10:55 53.41483 -2.14804 1958 ft 132 kts 229°
2026-04-17 10:55 53.40912 -2.15990 1776 ft 133 kts 229°
2026-04-17 10:55 53.40326 -2.17214 1589 ft 140 kts 229°
2026-04-17 10:55 53.39693 -2.18529 1399 ft 142 kts 229°
2026-04-17 10:56 53.39069 -2.19828 1205 ft 141 kts 229°
2026-04-17 10:56 53.38451 -2.21098 986 ft 142 kts 228°
2026-04-17 10:56 53.37833 -2.22381 808 ft 140 kts 229°
2026-04-17 10:56 53.37223 -2.23672 621 ft 140 kts 229°
2026-04-17 10:57 53.36598 -2.24928 451 ft 138 kts 229°
2026-04-17 10:57 53.35994 -2.26205 263 ft 134 kts 229°
2026-04-17 10:57 53.35539 -2.27150 259 ft 64 kts 231°
2026-04-17 10:57 53.35366 -2.27507 259 ft 24 kts 230°
2026-04-17 10:58 53.35284 -2.27706 259 ft 18 kts 250°
2026-04-17 10:58 53.35255 -2.27900 259 ft 15 kts 262°
2026-04-17 10:58 53.35239 -2.28067 259 ft 6 kts 261°
2026-04-17 10:58 53.35234 -2.28117 259 ft 4 kts 261°
2026-04-17 10:59 53.35242 -2.28163 259 ft 4 kts 323°
2026-04-17 10:59 53.35275 -2.28180 259 ft 6 kts
2026-04-17 10:59 53.35318 -2.28145 259 ft 8 kts 43°
2026-04-17 10:59 53.35360 -2.28076 259 ft 7 kts 45°
2026-04-17 11:00 53.35392 -2.28022 259 ft 5 kts 44°
2026-04-17 11:00 53.35418 -2.27982 259 ft 4 kts 44°
2026-04-17 11:00 53.35445 -2.27938 259 ft 7 kts 44°
2026-04-17 11:00 53.35492 -2.27862 259 ft 10 kts 44°
2026-04-17 11:01 53.35556 -2.27758 259 ft 13 kts 46°
2026-04-17 11:01 53.35631 -2.27637 259 ft 16 kts 43°
2026-04-17 11:01 53.35708 -2.27486 259 ft 17 kts 52°
2026-04-17 11:01 53.35783 -2.27332 259 ft 10 kts 58°
2026-04-17 11:02 53.35818 -2.27264 259 ft 8 kts 53°
2026-04-17 11:02 53.35807 -2.27161 259 ft 10 kts 128°
2026-04-17 11:02 53.35808 -2.27060 259 ft 9 kts 59°
2026-04-17 11:02 53.35853 -2.26941 259 ft 13 kts 52°
2026-04-17 11:03 53.35920 -2.26829 259 ft 12 kts
2026-04-17 11:03 53.35972 -2.26857 259 ft 6 kts 322°
2026-04-17 11:03 53.36000 -2.26903 259 ft 4 kts 314°
2026-04-17 11:03 53.36010 -2.26921 259 ft 0 kts 314°